Regional Weather Roundup
Issued by NWS

Home | Current Version | Previous Version | Text Only | Print | Product List | Glossary On
Versions: 1 2 3 4 5 6 7 8 9 10 11 12 13 14 15 16 17 18 19 20 21 22 23 24 25 26 27 28 29 30 31 32 33 34 35 36 37 38 39 40 41 42 43 44 45 46 47 48 49 50
000
ASUS43 KDTX 291810
RWRMI
MICHIGAN HOURLY REGIONAL WEATHER ROUNDUP
NATIONAL WEATHER SERVICE DETROIT/PONTIAC MI
200 PM EDT FRI JUL 29 2016

NOTE: "FAIR" INDICATES FEW OR NO CLOUDS BELOW 12,000 FEET WITH NO
SIGNIFICANT WEATHER AND/OR OBSTRUCTION TO VISIBILITY.

MIZ047>049-052>055-059>063-066>070-074>076-081>083-291900-
SOUTHEAST LOWER MICHIGAN

CITY           SKY/WX    TMP DP  RH WIND       PRES   REMARKS
ADRIAN         PTSUNNY   84  67  56 VRB7      29.95F
6HR MIN TEMP:  67; 6HR MAX TEMP:  85;

ALMA           LGT RAIN  69  67  95 SW7       30.04S
ANN ARBOR      CLOUDY    83  65  54 CALM      29.95S
BAD AXE        CLOUDY    72  60  64 NE9       30.04S
CARO           PTSUNNY   74  60  63 E8        30.02S
DETROIT CITY   CLOUDY    77  67  71 E12       29.96S
6HR MIN TEMP:  72; 6HR MAX TEMP:  82;

DETROIT        CLOUDY    86  65  49 N8        29.94F
6HR MIN TEMP:  72; 6HR MAX TEMP:  86;

FLINT          CLOUDY    82  61  48 NE16      29.99F
6HR MIN TEMP:  71; 6HR MAX TEMP:  82;

GROSSE ILE     MOSUNNY   85  65  52 E7        29.93S
6HR MIN TEMP:  73; 6HR MAX TEMP:  85;

HILLSDALE      LGT RAIN  69  67  94 NW10      29.99S
6HR MIN TEMP:  59; 6HR MAX TEMP:  87; 6HR PCP:  0.05;

HOWELL         CLOUDY    81  61  50 N3        29.98S
6HR MIN TEMP:  65; 6HR MAX TEMP:  82;


CITY           SKY/WX    TMP DP  RH WIND       PRES   REMARKS
JACKSON        CLOUDY    75  69  81 NW6       29.98S
6HR MIN TEMP:  67; 6HR MAX TEMP:  76; 6HR PCP: TRACE;

LAMBERTVILLE   CLOUDY    83  67  58 NE7       29.94F
6HR MIN TEMP:  71; 6HR MAX TEMP:  85;

LANSING        CLOUDY    74  62  66 N8        30.01R
6HR MIN TEMP:  68; 6HR MAX TEMP:  76;

LAPEER         FAIR      78  58  50 NE10G20   30.00F
6HR MIN TEMP:  68; 6HR MAX TEMP:  78;

MASON          CLOUDY    77  64  65 N14       29.99S
MONROE         SUNNY     87  70  58 NW5       29.93S HX  92
MT. CLEMENS    CLOUDY    79  66  63 NE10      29.95F
6HR MIN TEMP:  70; 6HR MAX TEMP:  81;

PONTIAC        CLOUDY    80  64  58 NE10      29.97F
6HR MIN TEMP:  68; 6HR MAX TEMP:  83;

PORT HOPE        N/A     71  62  73 NE15      30.04R
6HR MIN TEMP:  70; 6HR MAX TEMP:  72;

PORT HURON     CLOUDY    77  64  65 N13       29.99S
TRI CITIES     CLOUDY    75  65  70 NE15      30.03S
6HR MIN TEMP:  70; 6HR MAX TEMP:  75;

MIDLAND        PTSUNNY   76  61  59 E14       30.03S
6HR MIN TEMP:  65; 6HR MAX TEMP:  76;

TROY           PTSUNNY   83  63  50 NE13      29.98F
SAGINAW HB     PTSUNNY   77  59  53 NE9       30.01S
$$
MIZ043>046-050>051-056>058-064>065-071>073-077>080-291900-
SOUTHWEST LOWER MICHIGAN

CITY           SKY/WX    TMP DP  RH WIND       PRES   REMARKS
BATTLE CREEK   PTSUNNY   75  68  78 E8        29.98F
6HR MIN TEMP:  65; 6HR MAX TEMP:  75; 6HR PCP:  0.11;

BENTON HARBOR  MOSUNNY   81  66  60 SE7       29.94F
6HR MIN TEMP:  69; 6HR MAX TEMP:  83;

BIG RAPIDS     CLOUDY    75  65  70 E12       30.03F
6HR MIN TEMP:  64; 6HR MAX TEMP:  75;

COLDWATER      LGT RAIN  69  68  98 E5        29.97F
6HR MIN TEMP:  66; 6HR MAX TEMP:  69;

FREMONT        PTSUNNY   76  65  70 E10       30.01S
HOLLAND        PTSUNNY   78  65  63 E12       29.98F
6HR MIN TEMP:  67; 6HR MAX TEMP:  78; 6HR PCP:  0.47;

GRAND RAPIDS   PTSUNNY   76  65  68 NE14      30.00F
6HR MIN TEMP:  67; 6HR MAX TEMP:  77;

IONIA          LGT RAIN  69  62  77 NE12      30.01S
6HR MIN TEMP:  65; 6HR MAX TEMP:  73;

KALAMAZOO      PTSUNNY   77  67  71 VRB5      29.97F
6HR MIN TEMP:  67; 6HR MAX TEMP:  77; 6HR PCP:  0.50;

LUDINGTON      PTSUNNY   77  65  67 E7        30.00F
6HR MIN TEMP:  63; 6HR MAX TEMP:  77;

MARSHALL       CLOUDY    72  70  93 CALM      29.98F
6HR MIN TEMP:  66; 6HR MAX TEMP:  72; 6HR PCP:  0.17;

MOUNT PLEASANT CLOUDY    73  63  68 E5        30.03S
6HR MIN TEMP:  65; 6HR MAX TEMP:  74;

MUSKEGON       CLOUDY    75  65  70 E13       29.99F
6HR MIN TEMP:  63; 6HR MAX TEMP:  76; 6HR PCP:  0.61;

SOUTH HAVEN    PTSUNNY   78  69  72 NE7       29.95F
$$
MIZ016>042-291900-
NORTHERN LOWER MICHIGAN

CITY           SKY/WX    TMP DP  RH WIND       PRES   REMARKS
ALPENA         MOSUNNY   74  53  48 NE9       30.08S
6HR MIN TEMP:  65; 6HR MAX TEMP:  75;

BEAVER ISLAND  SUNNY     74  51  44 E9        30.08S
6HR MIN TEMP:  67; 6HR MAX TEMP:  74;

BELLAIRE       MOSUNNY   80  51  36 N7        30.04S
6HR MIN TEMP:  61; 6HR MAX TEMP:  80;

CADILLAC       CLOUDY    72  60  67 E8        30.06S
CHARLEVOIX     SUNNY     74  62  64 NW8       30.09S
6HR MIN TEMP:  67; 6HR MAX TEMP:  77;

FRANKFORT      PTSUNNY   78  57  47 E9        30.03S
GAYLORD        PTSUNNY   76  51  41 NE12      30.07S
6HR MIN TEMP:  62; 6HR MAX TEMP:  78;

GRAYLING       PTSUNNY   82  53  36 NE9       30.05F
6HR MIN TEMP:  65; 6HR MAX TEMP:  83;

HARBOR SPRINGS MOSUNNY   74  55  51 NE6       30.06S
HOUGHTON LAKE  CLOUDY    75  55  49 E8G17     30.06S
6HR MIN TEMP:  62; 6HR MAX TEMP:  77;

MANISTEE       CLOUDY    76  60  57 E8        30.02S
OSCODA         PTSUNNY   71  58  64 NE13      30.07R
6HR MIN TEMP:  68; 6HR MAX TEMP:  74;

PELLSTON       SUNNY     76  51  41 NE12      30.08R
6HR MIN TEMP:  60; 6HR MAX TEMP:  76;

ROGERS CITY    SUNNY     70  57  63 NE9       30.10S
TRAVERSE CITY  PTSUNNY   79  55  43 N8        30.02S
6HR MIN TEMP:  65; 6HR MAX TEMP:  81; 6HR PCP: TRACE;

$$
MIZ007>008-015-291900-
EASTERN UPPER MICHIGAN

CITY           SKY/WX    TMP DP  RH WIND       PRES   REMARKS
KINROSS        MOSUNNY   74  51  44 NE7G17    30.08F
6HR MIN TEMP:  62; 6HR MAX TEMP:  74;

MACKINAC ISLAN SUNNY     71  55  58 SE6       30.08S
6HR MIN TEMP:  64; 6HR MAX TEMP:  71;

NEWBERRY       SUNNY     75  46  35 VRB8G17   30.08S
S. S. MARIE    MOSUNNY   77  51  40 VRB5      30.07F
6HR MIN TEMP:  62; 6HR MAX TEMP:  77;

MUNISING         N/A     73  63  70 NE16      30.08S
6HR MIN TEMP:  63; 6HR MAX TEMP:  74;

$$
MIZ004>006-011>014-085-291900-
CENTRAL UPPER MICHIGAN

CITY           SKY/WX    TMP DP  RH WIND       PRES   REMARKS
MANISTIQUE     PTSUNNY   74  59  60 S9        30.08R
6HR MIN TEMP:  61; 6HR MAX TEMP:  74;

ESCANABA       SUNNY     73  57  56 SE9       30.06S
6HR MIN TEMP:  61; 6HR MAX TEMP:  75;

MENOMINEE      SUNNY    N/A N/A N/A E15       30.06S
SAWYER-GWINN   MOSUNNY   72  57  60 NE12G18   30.10S
$$
MIZ001>003-009>011-084-291900-
WESTERN UPPER MICHIGAN

CITY           SKY/WX    TMP DP  RH WIND       PRES   REMARKS
IRON MOUNTAIN  MOSUNNY   74  55  51 SE8       30.07R
6HR MIN TEMP:  55; 6HR MAX TEMP:  76;

HOUGHTON       SUNNY     74  55  51 E7        30.10S
6HR MIN TEMP:  62; 6HR MAX TEMP:  74;

COPPER HARBOR    N/A     70  56  61 E9        30.09S
6HR MIN TEMP:  59; 6HR MAX TEMP:  71;

IRONWOOD       PTSUNNY   70  57  64 N9        30.08S
6HR MIN TEMP:  48; 6HR MAX TEMP:  72;

$$

ABBREVIATIONS USED IN REMARKS
   TC - TEMPERATURE IN CELSIUS
  WCI - WIND CHILL INDEX
   HX - HEAT INDEX
  VSB - VISIBILITY




USA.gov is the U.S. government's official web portal to all federal, state and local government web resources and services.